This is the latest recevied weather packets stored in our database for station/object SQ3MKP-13. If no packets are shown the sender has not sent any weather packets the latest 10 day(s).
| Time | Temp. | Humidity | Pressure | Rain* | Wind** | Luminosity | Snow |
|---|---|---|---|---|---|---|---|
| 1788084094 | 25° C | 51% | 1002.9 hPa | - | - | 729 W/m² | - |
| 1788083794 | 24.44° C | 52% | 1003 hPa | - | - | 607 W/m² | - |
| 1788083493 | 24.44° C | 54% | 1003.1 hPa | - | - | 603 W/m² | - |
| 1788083192 | 24.44° C | 54% | 1003.1 hPa | - | - | 608 W/m² | - |
| 1788082891 | 24.44° C | 53% | 1003.2 hPa | - | - | 592 W/m² | - |
| 1788082590 | 24.44° C | 54% | 1003.2 hPa | - | - | 585 W/m² | - |
| 1788082297 | 24.44° C | 54% | 1003.2 hPa | - | - | 580 W/m² | - |
| 1788081988 | 24.44° C | 56% | 1003.2 hPa | - | - | 595 W/m² | - |
| 1788081687 | 23.89° C | 55% | 1003.3 hPa | - | - | 481 W/m² | - |
| 1788081386 | 23.33° C | 57% | 1003.3 hPa | - | - | 404 W/m² | - |
| 1788081085 | 23.33° C | 57% | 1003.3 hPa | - | - | 665 W/m² | - |
| 1788080784 | 22.78° C | 58% | 1003.3 hPa | - | - | 429 W/m² | - |
| 1788080483 | 22.78° C | 58% | 1003.3 hPa | - | - | 371 W/m² | - |
| 1788080182 | 23.33° C | 58% | 1003.3 hPa | - | - | 323 W/m² | - |
| 1788079881 | 22.78° C | 58% | 1003.4 hPa | - | - | 555 W/m² | - |
| 1788079581 | 22.22° C | 59% | 1003.4 hPa | - | - | 410 W/m² | - |
| 1788079280 | 21.67° C | 61% | 1003.4 hPa | - | - | 374 W/m² | - |
| 1788078978 | 22.22° C | 61% | 1003.5 hPa | - | - | 224 W/m² | - |
| 1788078677 | 22.22° C | 61% | 1003.5 hPa | - | - | 202 W/m² | - |
| 1788078376 | 21.67° C | 62% | 1003.5 hPa | - | - | 383 W/m² | - |
| 1788078075 | 21.67° C | 62% | 1003.6 hPa | - | - | 268 W/m² | - |
| 1788077774 | 21.67° C | 62% | 1003.5 hPa | - | - | 241 W/m² | - |
| 1788077473 | 21.11° C | 62% | 1003.5 hPa | - | - | 289 W/m² | - |
| 1788077172 | 21.11° C | 63% | 1003.6 hPa | - | - | 317 W/m² | - |
| 1788076872 | 21.11° C | 63% | 1003.5 hPa | - | - | 227 W/m² | - |
* Rain since midnight (hover to see other rain measurements)
** Current wind speed in m/s (hover to see current wind gust speed)